• In Romania
  • List of Countries
  • For 7 days
  • Water Temperature
  • Satellite Maps
  • Weather Map
  • Weather Widgets
  • user-avatar
    Login

    Hourly Weather Lelowice

    Today, 19 October, Friday

    Time Temperature Precipitation Wind Pressure Humidity
    00:00 +13°C° 0 mm 1 mps 743 mmHg 71%
    01:00 +13°C° 0 mm 1 mps 743 mmHg 73%
    02:00 +13°C° 0 mm 1 mps 743 mmHg 74%
    03:00 +13°C° 0 mm 2 mps 743 mmHg 75%
    04:00 +12°C° 0 mm 2 mps 743 mmHg 77%
    05:00 +12°C° 0 mm 2 mps 743 mmHg 77%
    06:00 +12°C° 0 mm 2 mps 743 mmHg 77%
    07:00 +13°C° 0 mm 1 mps 744 mmHg 77%
    08:00 +14°C° 0 mm 2 mps 744 mmHg 73%
    09:00 +15°C° 0 mm 2 mps 744 mmHg 68%
    10:00 +16°C° 0 mm 2 mps 744 mmHg 64%
    11:00 +17°C° 0 mm 2 mps 744 mmHg 61%
    12:00 +18°C° 0 mm 2 mps 744 mmHg 57%
    13:00 +18°C° 0 mm 3 mps 744 mmHg 54%
    14:00 +18°C° 0 mm 2 mps 744 mmHg 56%
    15:00 +17°C° 0 mm 2 mps 744 mmHg 58%
    16:00 +17°C° 0 mm 2 mps 744 mmHg 60%
    17:00 +16°C° 0 mm 2 mps 744 mmHg 65%
    18:00 +14°C° 0 mm 2 mps 744 mmHg 71%
    19:00 +13°C° 0 mm 2 mps 745 mmHg 76%
    20:00 +13°C° 0 mm 2 mps 745 mmHg 80%
    21:00 +12°C° 0 mm 2 mps 745 mmHg 83%
    22:00 +12°C° 0 mm 2 mps 745 mmHg 87%
    23:00 +10°C° 0 mm 2 mps 745 mmHg 89%

    Tomorrow, 20 October, Saturday

    Time Temperature Precipitation Wind Pressure Humidity
    00:00 +10°C° 0 mm 2 mps 745 mmHg 91%
    01:00 +10°C° 0 mm 2 mps 746 mmHg 93%
    02:00 +10°C° 0 mm 1 mps 746 mmHg 93%
    03:00 +10°C° 0 mm 1 mps 746 mmHg 93%
    04:00 +10°C° 0 mm 1 mps 746 mmHg 94%
    05:00 +10°C° 0 mm 1 mps 746 mmHg 93%
    06:00 +10°C° 0 mm 1 mps 746 mmHg 92%
    07:00 +11°C° 0 mm 1 mps 746 mmHg 91%
    08:00 +12°C° 0 mm 2 mps 747 mmHg 84%
    09:00 +13°C° 0 mm 2 mps 747 mmHg 77%
    10:00 +14°C° 0 mm 2 mps 747 mmHg 69%
    11:00 +15°C° 0.1 mm 2 mps 747 mmHg 68%
    12:00 +14°C° 0.1 mm 3 mps 747 mmHg 67%
    13:00 +14°C° 0.1 mm 3 mps 747 mmHg 67%
    14:00 +13°C° 0 mm 3 mps 746 mmHg 68%
    15:00 +14°C° 0 mm 2 mps 746 mmHg 70%
    16:00 +13°C° 0 mm 2 mps 746 mmHg 71%
    17:00 +11°C° 0 mm 3 mps 746 mmHg 73%
    18:00 +11°C° 0 mm 3 mps 747 mmHg 76%
    19:00 +10°C° 0 mm 3 mps 747 mmHg 78%
    20:00 +9°C° 0 mm 3 mps 747 mmHg 77%
    21:00 +8°C° 0 mm 3 mps 747 mmHg 77%
    22:00 +7°C° 0 mm 3 mps 747 mmHg 76%
    23:00 +7°C° 0 mm 3 mps 747 mmHg 77%

    Day after tomorrow, 21 October, Sunday

    Time Temperature Precipitation Wind Pressure Humidity
    00:00 +7°C° 0 mm 3 mps 747 mmHg 78%
    01:00 +7°C° 0 mm 3 mps 747 mmHg 79%
    02:00 +7°C° 0 mm 3 mps 747 mmHg 79%
    03:00 +7°C° 0 mm 3 mps 747 mmHg 79%
    04:00 +7°C° 0 mm 3 mps 746 mmHg 79%
    05:00 +7°C° 0 mm 3 mps 746 mmHg 82%
    06:00 +5°C° 0 mm 3 mps 746 mmHg 84%
    07:00 +5°C° 0 mm 3 mps 746 mmHg 87%
    08:00 +7°C° 0.1 mm 3 mps 746 mmHg 81%
    09:00 +7°C° 0.1 mm 4 mps 747 mmHg 76%
    10:00 +10°C° 0.1 mm 4 mps 747 mmHg 70%
    11:00 +10°C° 0.2 mm 4 mps 746 mmHg 68%
    12:00 +10°C° 0.2 mm 4 mps 746 mmHg 66%
    13:00 +11°C° 0.2 mm 4 mps 746 mmHg 65%
    14:00 +10°C° 0.3 mm 3 mps 746 mmHg 67%
    15:00 +10°C° 0.3 mm 3 mps 746 mmHg 69%
    16:00 +10°C° 0.3 mm 2 mps 746 mmHg 72%
    17:00 +9°C° 0.1 mm 2 mps 746 mmHg 77%
    18:00 +8°C° 0.1 mm 2 mps 747 mmHg 82%
    19:00 +8°C° 0.1 mm 1 mps 747 mmHg 87%
    20:00 +7°C° 0 mm 1 mps 747 mmHg 88%
    21:00 +7°C° 0 mm 1 mps 747 mmHg 89%
    22:00 +6°C° 0 mm 1 mps 747 mmHg 90%
    23:00 +5°C° 0 mm 0 mps 747 mmHg 90%

    22 October, Monday

    Time Temperature Precipitation Wind Pressure Humidity
    00:00 +5°C° 0 mm 0 mps 747 mmHg 90%
    01:00 +4°C° 0 mm 0 mps 747 mmHg 90%
    02:00 +4°C° 0 mm 0 mps 747 mmHg 90%
    03:00 +4°C° 0 mm 0 mps 747 mmHg 90%
    04:00 +4°C° 0 mm 0 mps 747 mmHg 91%
    05:00 +4°C° 0 mm 0 mps 747 mmHg 90%
    06:00 +4°C° 0 mm 0 mps 747 mmHg 90%
    07:00 +4°C° 0 mm 0 mps 747 mmHg 90%
    08:00 +6°C° 0 mm 0 mps 747 mmHg 82%
    09:00 +9°C° 0 mm 1 mps 747 mmHg 73%
    10:00 +11°C° 0 mm 1 mps 747 mmHg 65%
    11:00 +11°C° 0 mm 1 mps 746 mmHg 60%
    12:00 +12°C° 0 mm 1 mps 746 mmHg 55%
    13:00 +13°C° 0 mm 1 mps 745 mmHg 50%
    14:00 +13°C° 0 mm 1 mps 745 mmHg 52%
    15:00 +12°C° 0 mm 1 mps 745 mmHg 55%
    16:00 +11°C° 0 mm 1 mps 744 mmHg 57%
    17:00 +10°C° 0 mm 1 mps 744 mmHg 62%
    18:00 +8°C° 0 mm 2 mps 744 mmHg 67%
    19:00 +7°C° 0 mm 2 mps 744 mmHg 71%
    20:00 +7°C° 0 mm 2 mps 744 mmHg 74%
    21:00 +6°C° 0 mm 2 mps 744 mmHg 77%
    22:00 +6°C° 0 mm 2 mps 744 mmHg 80%
    23:00 +5°C° 0.4 mm 3 mps 744 mmHg 82%

    23 October, Tuesday

    Time Temperature Precipitation Wind Pressure Humidity
    00:00 +5°C° 0.4 mm 3 mps 744 mmHg 85%
    01:00 +5°C° 0.4 mm 3 mps 743 mmHg 87%
    02:00 +5°C° 0.5 mm 4 mps 743 mmHg 86%
    03:00 +5°C° 0.5 mm 4 mps 743 mmHg 86%
    04:00 +6°C° 0.5 mm 4 mps 743 mmHg 85%
    05:00 +5°C° 0.1 mm 4 mps 743 mmHg 85%
    06:00 +5°C° 0.1 mm 4 mps 743 mmHg 85%
    07:00 +5°C° 0.1 mm 3 mps 743 mmHg 85%
    08:00 +5°C° 0 mm 4 mps 743 mmHg 80%
    09:00 +6°C° 0 mm 4 mps 744 mmHg 75%
    10:00 +7°C° 0 mm 4 mps 744 mmHg 70%
    11:00 +7°C° 0 mm 4 mps 743 mmHg 65%
    12:00 +8°C° 0 mm 4 mps 743 mmHg 60%
    13:00 +8°C° 0 mm 4 mps 743 mmHg 55%
    14:00 +8°C° 0 mm 4 mps 743 mmHg 57%
    15:00 +7°C° 0 mm 4 mps 743 mmHg 59%
    16:00 +8°C° 0 mm 3 mps 742 mmHg 60%
    17:00 +7°C° 0 mm 3 mps 742 mmHg 65%
    18:00 +5°C° 0 mm 3 mps 742 mmHg 70%
    19:00 +4°C° 0 mm 3 mps 742 mmHg 74%
    20:00 +5°C° 0 mm 4 mps 742 mmHg 75%
    21:00 +5°C° 0 mm 4 mps 742 mmHg 76%
    22:00 +6°C° 0 mm 5 mps 742 mmHg 77%
    23:00 +6°C° 0 mm 5 mps 741 mmHg 79%

    24 October, Wednesday

    Time Temperature Precipitation Wind Pressure Humidity
    00:00 +5°C° 0 mm 5 mps 741 mmHg 81%
    01:00 +5°C° 0 mm 5 mps 740 mmHg 83%
    02:00 +5°C° 0 mm 5 mps 740 mmHg 82%
    03:00 +5°C° 0 mm 5 mps 739 mmHg 80%
    04:00 +5°C° 0 mm 6 mps 738 mmHg 79%
    05:00 +5°C° 0.3 mm 6 mps 737 mmHg 79%
    06:00 +5°C° 0.3 mm 7 mps 736 mmHg 80%
    07:00 +6°C° 0.3 mm 8 mps 736 mmHg 80%
    08:00 +6°C° 0.8 mm 8 mps 735 mmHg 81%
    09:00 +7°C° 0.8 mm 8 mps 734 mmHg 82%
    10:00 +9°C° 0.8 mm 8 mps 734 mmHg 83%
    11:00 +9°C° 0.4 mm 8 mps 733 mmHg 83%
    12:00 +10°C° 0.4 mm 8 mps 733 mmHg 84%
    13:00 +10°C° 0.4 mm 8 mps 732 mmHg 85%
    14:00 +11°C° 0.2 mm 8 mps 732 mmHg 84%
    15:00 +11°C° 0.2 mm 8 mps 732 mmHg 82%
    16:00 +11°C° 0.2 mm 8 mps 732 mmHg 81%
    17:00 +11°C° 0.2 mm 8 mps 732 mmHg 79%
    18:00 +11°C° 0.2 mm 8 mps 733 mmHg 78%
    19:00 +10°C° 0.2 mm 8 mps 733 mmHg 77%
    20:00 +10°C° 0.2 mm 8 mps 733 mmHg 75%
    21:00 +10°C° 0.2 mm 7 mps 734 mmHg 74%
    22:00 +9°C° 0.2 mm 7 mps 734 mmHg 73%
    23:00 +9°C° 0.1 mm 6 mps 734 mmHg 73%
    Show more